Clarksdale Fletcher Field Air, MS

7:00 AM CST on December 15, 2019 (GMT -0600)
Fletcher

Weather History for KCKM - August, 2019

Change the Weather History Date:

Tuesday, August 27, 2019

  Actual Average (WUND) Record (WUND)
Temperature  
Mean Temperature 79 °F -  
Max Temperature 87 °F - - (-1)
Min Temperature 71 °F - - (-1)
Cooling Degree Days 14    
Growing Degree Days 29 (Base 50)    
Moisture  
Dew Point 76 °F    
Average Humidity 92    
Maximum Humidity 100    
Minimum Humidity 66    
Precipitation  
Precipitation 0.03 in - - ()
Sea Level Pressure  
Sea Level Pressure 29.93 in    
Wind  
Wind Speed 4 mph ()    
Max Wind Speed 16 mph    
Max Gust Speed 23 mph    
Visibility 9.3 miles    
Events      
Averages and records for this station are not official NWS values.
T = Trace of Precipitation, MM = Missing Value Source: Averaged Metar Reports

Daily Weather History Graph

Daily Weather History Graph

Search for Another Location

Airport or City:

Astronomy

Aug. 27, 2019 Rise Set
Actual Time 6:31 AM CDT 7:34 PM CDT
Civil Twilight 6:05 AM CDT 8:00 PM CDT
Nautical Twilight 5:35 AM CDT 8:31 PM CDT
Astronomical Twilight 5:03 AM CDT 9:03 PM CDT
Moon 3:05 AM CDT (8/27) 5:47 PM CDT (8/27)
Length of Visible Light 13h 54m
Length of Day
13h 03m
Waning Crescent, 11% of the Moon is Illuminated
Aug 27
Waning Crescent
Aug 30
New
Sep 5
First Quarter
Sep 13
Full
Sep 21
Last Quarter

Hourly Weather History & Observations

Time (CDT) Temp. Heat Index Dew Point Humidity Pressure Visibility Wind Dir Wind Speed Gust Speed Precip Events Conditions
12:15 AM 77.0 °F - 77.0 °F 100% 29.84 in 10.0 mi SSE 5.8 mph - N/A   Unknown
12:35 AM 78.8 °F - 78.8 °F 100% 29.85 in 10.0 mi South 6.9 mph - N/A   Unknown
12:55 AM 77.0 °F - 77.0 °F 100% 29.87 in 10.0 mi South 4.6 mph - N/A   Unknown
1:15 AM 77.0 °F - 77.0 °F 100% 29.86 in 10.0 mi South 6.9 mph - N/A   Unknown
1:35 AM 77.0 °F - 77.0 °F 100% 29.86 in 10.0 mi SSE 4.6 mph - N/A   Unknown
1:55 AM 77.0 °F - 77.0 °F 100% 29.86 in 10.0 mi South 5.8 mph - N/A   Unknown
2:35 AM 77.0 °F - 77.0 °F 100% 29.87 in 9.0 mi SE 3.5 mph - N/A   Unknown
2:55 AM 77.0 °F - 77.0 °F 100% 29.86 in 7.0 mi SE 6.9 mph - N/A   Unknown
3:35 AM 77.0 °F - 77.0 °F 100% 29.87 in 6.0 mi Calm Calm - N/A   Mist
3:55 AM 77.0 °F - 77.0 °F 100% 29.88 in 6.0 mi Calm Calm - N/A   Mist
4:15 AM 77.0 °F - 77.0 °F 100% 29.90 in 6.0 mi Calm Calm - N/A   Mist
4:35 AM 77.0 °F - 77.0 °F 100% 29.91 in 5.0 mi Calm Calm - N/A   Mist
4:55 AM 77.0 °F - 77.0 °F 100% 29.92 in 6.0 mi Calm Calm - N/A   Mist
5:15 AM 77.0 °F - 77.0 °F 100% 29.91 in 5.0 mi SSE 3.5 mph - N/A   Mist
5:35 AM 75.2 °F - 75.2 °F 100% 29.95 in 0.8 mi North 16.1 mph - N/A   Mist
5:55 AM 71.6 °F - 71.6 °F 100% 29.94 in 4.0 mi NNW 12.7 mph 23.0 mph 0.03 in   Mist
6:35 AM 71.6 °F - 71.6 °F 100% 29.95 in 10.0 mi West 4.6 mph - N/A   Unknown
6:55 AM 71.6 °F - 71.6 °F 100% 29.94 in 10.0 mi West 6.9 mph - N/A   Unknown
7:15 AM 71.6 °F - 71.6 °F 100% 29.93 in 10.0 mi West 4.6 mph - N/A   Unknown
7:35 AM 71.6 °F - 71.6 °F 100% 29.93 in 10.0 mi Calm Calm - N/A   Unknown
7:55 AM 71.6 °F - 71.6 °F 100% 29.92 in 10.0 mi Calm Calm - N/A   Unknown
8:15 AM 71.6 °F - 71.6 °F 100% 29.90 in 10.0 mi SE 4.6 mph - N/A   Unknown
8:35 AM 73.4 °F - 73.4 °F 100% 29.88 in 10.0 mi SE 8.1 mph - N/A   Unknown
8:55 AM 73.4 °F - 73.4 °F 100% 29.90 in 10.0 mi SSW 6.9 mph - N/A   Unknown
9:15 AM 75.2 °F - 75.2 °F 100% 29.88 in 10.0 mi SE 5.8 mph - N/A   Unknown
9:35 AM 75.2 °F - 75.2 °F 100% 29.88 in 10.0 mi SSW 5.8 mph - N/A   Unknown
9:55 AM 78.8 °F - 75.2 °F 89% 29.90 in 10.0 mi Calm Calm - N/A   Unknown
10:15 AM 80.6 °F 87.1 °F 77.0 °F 89% 29.91 in 10.0 mi Calm Calm - N/A   Unknown
10:35 AM 80.6 °F 86.2 °F 75.2 °F 84% 29.90 in 10.0 mi Calm Calm - N/A   Unknown
10:55 AM 82.4 °F 89.5 °F 75.2 °F 79% 29.91 in 10.0 mi Calm Calm - N/A   Unknown
11:15 AM 82.4 °F 88.2 °F 73.4 °F 74% 29.92 in 10.0 mi Calm Calm - N/A   Unknown
11:35 AM 82.4 °F 89.5 °F 75.2 °F 79% 29.93 in 10.0 mi West 4.6 mph - N/A   Unknown
11:55 AM 82.4 °F 90.9 °F 77.0 °F 84% 29.93 in 10.0 mi NW 5.8 mph - N/A   Unknown
12:15 PM 82.4 °F 89.5 °F 75.2 °F 79% 29.95 in 10.0 mi WNW 8.1 mph - N/A   Unknown
12:35 PM 82.4 °F 90.9 °F 77.0 °F 84% 29.94 in 10.0 mi WNW 10.4 mph - N/A   Unknown
12:55 PM 84.2 °F 94.1 °F 77.0 °F 79% 29.94 in 10.0 mi WNW 6.9 mph - N/A   Unknown
1:15 PM 84.2 °F 94.1 °F 77.0 °F 79% 29.94 in 10.0 mi WNW 8.1 mph - N/A   Unknown
1:35 PM 84.2 °F 94.1 °F 77.0 °F 79% 29.94 in 10.0 mi NNW 8.1 mph - N/A   Unknown
1:55 PM 82.4 °F 89.5 °F 75.2 °F 79% 29.94 in 10.0 mi NNW 8.1 mph - N/A   Unknown
2:15 PM 84.2 °F 92.3 °F 75.2 °F 74% 29.94 in 10.0 mi Variable 6.9 mph - N/A   Unknown
2:35 PM 84.2 °F 94.1 °F 77.0 °F 79% 29.95 in 10.0 mi NNW 4.6 mph - N/A   Unknown
3:55 PM 86.0 °F 93.4 °F 73.4 °F 66% 29.94 in 10.0 mi WNW 6.9 mph - N/A   Unknown
4:15 PM 87.8 °F 97.6 °F 75.2 °F 66% 29.93 in 10.0 mi WSW 6.9 mph - N/A   Unknown
4:55 PM 87.8 °F 99.7 °F 77.0 °F 70% 29.93 in 10.0 mi West 6.9 mph - N/A   Unknown
5:15 PM 86.0 °F 95.1 °F 75.2 °F 70% 29.94 in 10.0 mi West 6.9 mph - N/A   Unknown
5:35 PM 86.0 °F 95.1 °F 75.2 °F 70% 29.94 in 10.0 mi WNW 4.6 mph - N/A   Unknown
5:55 PM 84.2 °F 96.1 °F 78.8 °F 84% 29.94 in 10.0 mi Calm Calm - N/A   Unknown
6:15 PM 82.4 °F 92.4 °F 78.8 °F 89% 29.95 in 10.0 mi Calm Calm - N/A   Unknown
6:35 PM 82.4 °F 92.4 °F 78.8 °F 89% 29.94 in 10.0 mi Calm Calm - N/A   Unknown
6:55 PM 82.4 °F 94.0 °F 80.6 °F 94% 29.94 in 10.0 mi Calm Calm - N/A   Unknown
7:15 PM 80.6 °F 89.3 °F 80.6 °F 100% 29.95 in 10.0 mi Calm Calm - N/A   Unknown
7:35 PM 80.6 °F 89.3 °F 80.6 °F 100% 29.95 in 10.0 mi Calm Calm - N/A   Unknown
7:55 PM 80.6 °F 89.3 °F 80.6 °F 100% 29.96 in 10.0 mi Calm Calm - N/A   Unknown
8:35 PM 78.8 °F - 78.8 °F 100% 29.97 in 10.0 mi Calm Calm - N/A   Unknown
8:55 PM 78.8 °F - 78.8 °F 100% 29.98 in 10.0 mi Calm Calm - N/A   Unknown
9:15 PM 78.8 °F - 78.8 °F 100% 29.98 in 10.0 mi Calm Calm - N/A   Unknown
9:35 PM 78.8 °F - 78.8 °F 100% 29.99 in 10.0 mi Calm Calm - N/A   Unknown
9:55 PM 78.8 °F - 78.8 °F 100% 30.00 in 10.0 mi Calm Calm - N/A   Unknown
10:15 PM 78.8 °F - 78.8 °F 100% 30.00 in 10.0 mi NW 5.8 mph - N/A   Unknown
10:35 PM 77.0 °F - 77.0 °F 100% 30.00 in 10.0 mi NW 5.8 mph - N/A   Unknown
10:55 PM 77.0 °F - 77.0 °F 100% 30.00 in 10.0 mi Calm Calm - N/A   Unknown
11:15 PM 77.0 °F - 77.0 °F 100% 30.01 in 10.0 mi WNW 4.6 mph - N/A   Unknown
11:35 PM 77.0 °F - 77.0 °F 100% 30.00 in 10.0 mi NW 4.6 mph - N/A   Unknown
11:55 PM 77.0 °F - 77.0 °F 100% 30.00 in 10.0 mi NW 5.8 mph - N/A   Unknown